Weather History for KLBL - February, 2013

Change the Weather History Date:

Tuesday, February 26, 2013

  Actual Average (KGUY) Record (KGUY)
Temperature  
Mean Temperature 27 °F 41 °F  
Max Temperature 39 °F 56 °F 73 °F (1999)
Min Temperature 15 °F 26 °F 8 °F (2002)
Degree Days  
Heating Degree Days 38 24  
Month to date heating degree days 691  
Since 1 July heating degree days 3419  
Cooling Degree Days 0 0  
Month to date cooling degree days 0  
Year to date cooling degree days 0  
Moisture  
Dew Point 21 °F    
Average Humidity 75    
Maximum Humidity 86    
Minimum Humidity 60    
Precipitation  
Precipitation 0.00 in 0.02 in 0.00 in (2015)
Month to date precipitation 0.43  
Year to date precipitation 0.83  
Snow  
Snow 0.00 in - - ()
Month to date snowfall  
Since 1 July snowfall  
Snow Depth -    
Sea Level Pressure  
Sea Level Pressure 29.85 in    
Wind  
Wind Speed 9 mph (NW)    
Max Wind Speed 14 mph    
Max Gust Speed -    
Visibility 10 miles    
Events      
T = Trace of Precipitation, MM = Missing Value Source: NWS Daily Summary

Daily Weather History Graph

Daily Weather History Graph

Search for Another Location

Airport or City:

Trip Planner

Search our weather history database for the weather conditions in past years. The results will help you decide how hot, cold, wet, or windy it might be!

Date:

Astronomy

Feb. 26, 2013 Rise Set
Actual Time 7:18 AM CST 6:35 PM CST
Civil Twilight 6:52 AM CST 7:01 PM CST
Nautical Twilight 6:22 AM CST 7:31 PM CST
Astronomical Twilight 5:52 AM CST 8:01 PM CST
Moon 7:50 PM CST (2/26) 7:24 AM CST (2/26)
Length of Visible Light 12h 09m
Length of Day
11h 16m
Full, 99% of the Moon is Illuminated
Feb 26
Full
Mar 4
Last Quarter
Mar 11
New
Mar 19
First Quarter
Mar 27
Full

Hourly Weather History & Observations

Time (CST) Temp. Windchill Dew Point Humidity Pressure Visibility Wind Dir Wind Speed Gust Speed Precip Events Conditions
12:15 AM 24.8 °F 14.0 °F 19.4 °F 80% 29.88 in 10.0 mi North 11.5 mph - N/A   Clear
12:35 AM 24.8 °F 14.0 °F 19.4 °F 80% 29.88 in 10.0 mi NNW 11.5 mph - N/A   Clear
12:55 AM 24.8 °F 14.0 °F 17.6 °F 74% 29.88 in 10.0 mi NNW 11.5 mph - N/A   Clear
1:15 AM 23.0 °F 12.4 °F 17.6 °F 80% 29.87 in 10.0 mi NNW 10.4 mph - N/A   Clear
1:35 AM 21.2 °F 10.1 °F 15.8 °F 80% 29.88 in 10.0 mi NNW 10.4 mph - N/A   Clear
1:55 AM 21.2 °F 10.9 °F 15.8 °F 80% 29.87 in 10.0 mi NNW 9.2 mph - N/A   Clear
2:15 AM 19.4 °F 7.2 °F 14.0 °F 80% 29.87 in 10.0 mi NNW 11.5 mph - N/A   Clear
2:35 AM 19.4 °F 7.2 °F 15.8 °F 86% 29.87 in 10.0 mi NNW 11.5 mph - N/A   Clear
2:55 AM 19.4 °F 6.6 °F 15.8 °F 86% 29.87 in 10.0 mi NW 12.7 mph - N/A   Clear
3:15 AM 21.2 °F 8.9 °F 15.8 °F 80% 29.86 in 10.0 mi NW 12.7 mph - N/A   Clear
3:35 AM 21.2 °F 8.9 °F 15.8 °F 80% 29.85 in 10.0 mi NW 12.7 mph - N/A   Clear
3:55 AM 21.2 °F 9.5 °F 15.8 °F 80% 29.85 in 10.0 mi NNW 11.5 mph - N/A   Clear
4:15 AM 19.4 °F 7.2 °F 15.8 °F 86% 29.83 in 10.0 mi NW 11.5 mph - N/A   Clear
4:35 AM 19.4 °F 7.9 °F 15.8 °F 86% 29.82 in 10.0 mi NNW 10.4 mph - N/A   Clear
4:55 AM 19.4 °F 7.2 °F 15.8 °F 86% 29.83 in 10.0 mi NNW 11.5 mph - N/A   Clear
5:15 AM 19.4 °F 6.6 °F 12.2 °F 74% 29.83 in 10.0 mi NW 12.7 mph - N/A   Clear
5:35 AM 19.4 °F 7.9 °F 12.2 °F 74% 29.83 in 10.0 mi NW 10.4 mph - N/A   Clear
6:15 AM 19.4 °F 8.6 °F 14.0 °F 80% 29.81 in 10.0 mi NNW 9.2 mph - N/A   Clear
6:35 AM 17.6 °F 6.4 °F 10.4 °F 73% 29.81 in 10.0 mi NW 9.2 mph - N/A   Clear
6:55 AM 17.6 °F 5.7 °F 12.2 °F 79% 29.84 in 10.0 mi WNW 10.4 mph - N/A   Clear
7:15 AM 15.8 °F 2.7 °F 10.4 °F 79% 29.84 in 10.0 mi NW 11.5 mph - N/A   Clear
7:35 AM 17.6 °F 5.0 °F 12.2 °F 79% 29.84 in 10.0 mi NW 11.5 mph - N/A   Clear
7:55 AM 19.4 °F 6.6 °F 12.2 °F 74% 29.85 in 10.0 mi NW 12.7 mph - N/A   Clear
8:15 AM 19.4 °F 7.2 °F 14.0 °F 80% 29.85 in 10.0 mi NW 11.5 mph - N/A   Clear
8:35 AM 21.2 °F 8.9 °F 15.8 °F 80% 29.85 in 10.0 mi NW 12.7 mph - N/A   Clear
8:55 AM 21.2 °F 9.5 °F 15.8 °F 80% 29.85 in 10.0 mi NW 11.5 mph - N/A   Clear
9:15 AM 23.0 °F 11.7 °F 17.6 °F 80% 29.84 in 10.0 mi NNW 11.5 mph - N/A   Clear
9:35 AM 24.8 °F 14.0 °F 17.6 °F 74% 29.85 in 10.0 mi NW 11.5 mph - N/A   Clear
9:55 AM 26.6 °F 15.2 °F 19.4 °F 74% 29.85 in 10.0 mi NNW 13.8 mph - N/A   Clear
10:15 AM 28.4 °F 18.5 °F 21.2 °F 74% 29.84 in 10.0 mi North 11.5 mph - N/A   Clear
10:35 AM 28.4 °F 18.5 °F 21.2 °F 74% 29.85 in 10.0 mi NNW 11.5 mph - N/A   Clear
10:55 AM 30.2 °F 21.3 °F 23.0 °F 75% 29.84 in 10.0 mi North 10.4 mph - N/A   Clear
11:15 AM 30.2 °F 21.3 °F 24.8 °F 80% 29.83 in 10.0 mi North 10.4 mph - N/A   Clear
11:35 AM 32.0 °F 25.6 °F 24.8 °F 75% 29.84 in 10.0 mi North 6.9 mph - N/A   Clear
11:55 AM 33.8 °F 28.6 °F 24.8 °F 70% 29.85 in 10.0 mi North 5.8 mph - N/A   Clear
12:15 PM 33.8 °F 29.6 °F 24.8 °F 70% 29.85 in 10.0 mi North 4.6 mph - N/A   Clear
12:35 PM 33.8 °F - 24.8 °F 70% 29.85 in 10.0 mi Calm Calm - N/A   Clear
12:55 PM 33.8 °F - 24.8 °F 70% 29.84 in 10.0 mi Calm Calm - N/A   Clear
1:15 PM 35.6 °F - 24.8 °F 65% 29.83 in 10.0 mi Calm Calm - N/A   Clear
1:35 PM 35.6 °F - 26.6 °F 70% 29.82 in 10.0 mi Calm Calm - N/A   Clear
1:55 PM 35.6 °F - 24.8 °F 65% 29.81 in 10.0 mi Calm Calm - N/A   Clear
2:15 PM 35.6 °F 31.7 °F 24.8 °F 65% 29.79 in 10.0 mi North 4.6 mph - N/A   Clear
2:35 PM 37.4 °F 32.1 °F 26.6 °F 65% 29.79 in 10.0 mi East 6.9 mph - N/A   Clear
2:55 PM 37.4 °F 32.8 °F 24.8 °F 60% 29.79 in 10.0 mi NE 5.8 mph - N/A   Clear
3:15 PM 37.4 °F 32.8 °F 24.8 °F 60% 29.80 in 10.0 mi ENE 5.8 mph - N/A   Clear
3:35 PM 37.4 °F - 26.6 °F 65% 29.81 in 10.0 mi Calm Calm - N/A   Clear
3:55 PM 37.4 °F - 24.8 °F 60% 29.82 in 10.0 mi Calm Calm - N/A   Clear
4:15 PM 39.2 °F - 26.6 °F 61% 29.82 in 10.0 mi Calm Calm - N/A   Clear
4:35 PM 37.4 °F 33.8 °F 24.8 °F 60% 29.82 in 10.0 mi NE 4.6 mph - N/A   Clear
4:55 PM 37.4 °F 32.8 °F 24.8 °F 60% 29.83 in 10.0 mi SE 5.8 mph - N/A   Clear
5:15 PM 35.6 °F 29.2 °F 24.8 °F 65% 29.83 in 10.0 mi South 8.1 mph - N/A   Clear
5:35 PM 35.6 °F 29.9 °F 24.8 °F 65% 29.84 in 10.0 mi South 6.9 mph - N/A   Clear
5:55 PM 33.8 °F 27.7 °F 24.8 °F 70% 29.84 in 10.0 mi South 6.9 mph - N/A   Clear
6:15 PM 32.0 °F 25.6 °F 24.8 °F 75% 29.85 in 10.0 mi South 6.9 mph - N/A   Clear
6:35 PM 32.0 °F 26.4 °F 24.8 °F 75% 29.85 in 10.0 mi SSW 5.8 mph - N/A   Clear
6:55 PM 30.2 °F 26.7 °F 23.0 °F 75% 29.86 in 10.0 mi SSW 3.5 mph - N/A   Clear
7:15 PM 30.2 °F - 23.0 °F 75% 29.85 in 10.0 mi Calm Calm - N/A   Clear
7:35 PM 30.2 °F - 23.0 °F 75% 29.86 in 10.0 mi Calm Calm - N/A   Clear
7:55 PM 30.2 °F 26.7 °F 23.0 °F 75% 29.87 in 10.0 mi West 3.5 mph - N/A   Clear
8:15 PM 28.4 °F 23.3 °F 23.0 °F 80% 29.89 in 10.0 mi West 4.6 mph - N/A   Clear
8:35 PM 28.4 °F 21.2 °F 21.2 °F 74% 29.89 in 10.0 mi West 6.9 mph - N/A   Clear
8:55 PM 28.4 °F 20.4 °F 23.0 °F 80% 29.90 in 10.0 mi WNW 8.1 mph - N/A   Mostly Cloudy
9:15 PM 30.2 °F 22.6 °F 24.8 °F 80% 29.91 in 10.0 mi WNW 8.1 mph - N/A   Overcast
9:35 PM 28.4 °F 22.2 °F 23.0 °F 80% 29.91 in 10.0 mi West 5.8 mph - N/A   Overcast
9:55 PM 30.2 °F 22.6 °F 24.8 °F 80% 29.92 in 10.0 mi West 8.1 mph - N/A   Overcast
10:15 PM 30.2 °F 24.3 °F 24.8 °F 80% 29.92 in 10.0 mi West 5.8 mph - N/A   Overcast
10:55 PM 30.2 °F 24.3 °F 24.8 °F 80% 29.93 in 10.0 mi NNE 5.8 mph - N/A   Overcast
11:15 PM 30.2 °F 24.3 °F 24.8 °F 80% 29.94 in 10.0 mi North 5.8 mph - N/A   Overcast
11:35 PM 28.4 °F 21.2 °F 24.8 °F 86% 29.95 in 10.0 mi North 6.9 mph - N/A   Mostly Cloudy
11:55 PM 28.4 °F 22.2 °F 23.0 °F 80% 29.95 in 10.0 mi North 5.8 mph - N/A   Mostly Cloudy